Location: Morisset
(33.1080°S, 151.4871°E)
Time: 08:28:43
(UTC+00:00)

SL-24 R/B - RUBIN 2 - Pass Details

Date: 29 October 2020
Orbit: 571 x 1025 km, 64.6° (Epoch: 27 November)

Event Time Altitude Azimuth Distance (km) Brightness Sun altitude
Exits shadow 16:48:31 47° 43° (NE) 818 4.1 -24.7°
Maximum altitude 16:48:58 50° 64° (ENE) 791 4.2 -24.6°
Drops below altitude 10° 16:53:07 10° 139° (SE) 1,926 7.1 -23.9°
Sets 16:55:21 0° 145° (SE) 2,813 8.2 -23.5°
